Tracking 29892 objects as of 21-Nov-2024
HD Live streaming from Space Station
objects crossing your sky now

STARLINK-30150

Track STARLINK-30150 now!
10-day predictions
STARLINK-30150 is classified as:


NORAD ID: 57621
Int'l Code: 2023-119V
Perigee: 565.1 km
Apogee: 567.3 km
Inclination: 43.0 °
Period: 95.8 minutes
Semi major axis: 6937 km
RCS: Unknown
Launch date: August 11, 2023
Source: United States (US)
Launch site: AIR FORCE EASTERN TEST RANGE (AFETR)
Your satellite tracking list
Your tracking list is empty




NASA's NSSDC Master Catalog

Two Line Element Set (TLE):
1 57621U 23119V   24325.91194038  .00000618  00000-0  60846-4 0  9991
2 57621  43.0030 136.3135 0001586 257.6391 102.4274 15.02536001 71807
Source of the keplerian elements: AFSPC